Location: Newark
(46.7000°N, 60.6000°W)
Time: 20:34:27
(UTC+00:00)

Vanguard 1 Rocket - Pass Details

Date: 07 November 2020
Orbit: 656 x 4221 km, 34.3° (Epoch: 30 November)

Event Time Altitude Azimuth Distance (km) Brightness Sun altitude
Rises 09:39:08 0° 211° (SSW) 6,527 11.6 -13.1°
Reaches altitude 10° 09:46:01 10° 196° (SSW) 4,721 11.0 -11.9°
Maximum altitude 09:52:48 17° 161° (SSE) 3,334 10.7 -10.8°
Drops below altitude 10° 09:57:44 10° 124° (SE) 3,240 11.5 -10.0°
Sets 10:01:07 0° 103° (ESE) 3,791 13.0 -9.4°
